www.pogodaiklimat.ru

Погода и климат >> Архив погоды >> Канарские Острова >> Аэропорт Рейна-София


ПОГОДА в Аэропорту Рейна-София

  • Прогноз погоды в Аэропорту Рейна-София
  • Монитор погоды в Аэропорту Рейна-София

АРХИВ ПОГОДЫ в Аэропорту Рейна-София

Время (UTC), дата Ветер
(напр.,м/с)
 
Видим.   Явления Облачность Т
(С)
Тd
(С)
f
(%)
Тe
(С)
Тes
(С)
Комфортность P
(гПа)
Po
(гПа)
Тmin
(С)
Tmax
(С)
R
(мм)
R24
(мм)
S
(см)
22 15.07 СВ 8 н/о н/о +22.3 +17.9 76 +27 +27 душно 1015.6 1006.7
23 15.07 СВ 7 н/о н/о +22.2 +17.7 76 +27 +27 душно 1015.9 1007.0
00 16.07 СВ 7 20 км [макс. диам. градин 0 мм] 1/1 600 м
[Cu hum]
+21.9 +17.7 77 +26 +26 душно 1015.7 1006.8
01 16.07 СВ 7 н/о н/о +21.7 +17.3 76 +26 +26 душно 1015.1 1006.2
02 16.07 СВ 6 н/о н/о +21.6 +17.6 78 +26 +26 душно 1014.9 1006.0
03 16.07 СВ 6 н/о н/о +21.4 +17.4 78 +25 +25 комфорт 1014.4 1005.5
04 16.07 СВ 6 н/о н/о +21.3 +17.1 77 +25 +25 комфорт 1014.2 1005.3
05 16.07 СВ 6 н/о н/о +21.2 +17.2 78 +25 +25 комфорт 1014.6 1005.7
06 16.07 СВ 7 20 км [макс. диам. градин 0 мм] 1/1 600 м
[Cu hum]
+21.1 +17.0 77 +25 +25 комфорт 1014.3 1005.4 +21.0
07 16.07 СВ 4 н/о н/о +21.5 +16.8 75 +25 +25 комфорт 1014.7 1005.8
08 16.07 СВ 6 н/о н/о +22.8 +17.3 71 +28 +28 душно 1015.2 1006.3
09 16.07 СВ 9 30 км [макс. диам. градин 0 мм] 1/1 600 м
[Sc]
+24.6 +17.3 64 +29 +29 душно 1015.0 1006.2
10 16.07 СВ 12 н/о н/о +25.4 +17.6 62 +30 +30 душно 1015.5 1006.7
11 16.07 СВ 11 н/о н/о +26.3 +17.6 59 +31 +31 душно 1015.8 1007.0
12 16.07 СВ 11 30 км [макс. диам. градин 0 мм] 1/1 600 м
[Sc]
+26.9 +17.1 55 +31 +31 душно 1016.0 1007.2
13 16.07 В 11 н/о н/о +27.5 +17.4 54 +32 +32 очень
душно
1015.4 1006.7
14 16.07 В 12 н/о н/о +27.2 +17.9 57 +32 +32 очень
душно
1015.3 1006.6
15 16.07 В 12 30 км [макс. диам. градин 0 мм] 1/1 600 м
[Sc]
+26.8 +18.1 59 +31 +31 душно 1015.0 1006.2
16 16.07 В 12 н/о н/о +26.6 +18.7 62 +32 +32 очень
душно
1015.4 1006.6
17 16.07 В 11 н/о н/о +26.5 +18.0 60 +31 +31 душно 1015.5 1006.7
18 16.07 СВ 11 30 км [макс. диам. градин 0 мм] 1/1 600 м
[Sc]
+25.5 +17.4 61 +30 +30 душно 1015.5 1006.7 +28.5
19 16.07 СВ 11 н/о н/о +24.0 +17.3 66 +28 +28 душно 1016.0 1007.1
20 16.07 СВ 10 н/о н/о +22.7 +17.4 72 +28 +28 душно 1016.3 1007.4
21 16.07 СВ 9 20 км [макс. диам. градин 0 мм] н/о +22.4 +17.3 73 +27 +27 душно 1016.6 1007.7
22 16.07 СВ 7 н/о н/о +22.3 +17.4 74 +27 +27 душно 1017.4 1008.5
23 16.07 СВ 8 н/о н/о +22.2 +17.3 74 +27 +27 душно 1017.8 1008.9
00 17.07 СВ 9 20 км [макс. диам. градин 0 мм] н/о +21.9 +17.5 76 +26 +26 душно 1017.6 1008.7
01 17.07 СВ 9 н/о н/о +21.8 +17.6 77 +26 +26 душно 1017.3 1008.4
02 17.07 СВ 8 н/о н/о +21.8 +17.4 76 +26 +26 душно 1016.8 1007.9
03 17.07 СВ 7 20 км [макс. диам. градин 0 мм] н/о +21.4 +17.2 77 +25 +25 комфорт 1016.9 1008.0
04 17.07 СВ 8 н/о н/о +21.3 +17.5 79 +25 +25 комфорт 1016.6 1007.7
05 17.07 СВ 9 н/о н/о +21.3 +17.9 81 +25 +25 комфорт 1017.1 1008.2
06 17.07 СВ 6 20 км [макс. диам. градин 0 мм] 4/4 600 м
[Sc]
+21.3 +17.9 81 +25 +25 комфорт 1017.9 1009.0 +21.1
07 17.07 СВ 7 н/о н/о +21.7 +17.7 78 +26 +26 душно 1018.3 1009.4
08 17.07 СВ 8 н/о н/о +22.9 +17.6 72 +28 +28 душно 1018.4 1009.5
09 17.07 СВ 11 25 км [макс. диам. градин 0 мм] 1/1 300 м
[Sc]
+23.9 +17.6 68 +28 +28 душно 1018.5 1009.6
10 17.07 СВ 11 н/о н/о +25.5 +17.4 61 +30 +30 душно 1019.0 1010.2
11 17.07 СВ 11 н/о н/о +26.6 +17.7 58 +31 +31 душно 1019.0 1010.2
12 17.07 В 11 30 км [макс. диам. градин 0 мм] 1/1 600 м
[Sc]
+26.8 +18.0 59 +31 +32 душно 1018.9 1010.1
13 17.07 В 11 н/о н/о +26.9 +18.0 58 +31 +31 душно 1019.0 1010.2
14 17.07 В 11 н/о н/о +27.4 +17.8 56 +32 +32 очень
душно
1018.8 1010.0
15 17.07 В 11 25 км [макс. диам. градин 0 мм] 1/1 600 м
[Sc]
+26.6 +17.9 59 +31 +31 душно 1018.4 1009.6
16 17.07 СВ 11 н/о н/о +27.0 +17.4 56 +31 +31 душно 1018.0 1009.2
17 17.07 СВ 11 н/о н/о +26.7 +17.2 56 +31 +31 душно 1018.0 1009.2
18 17.07 СВ 12 25 км [макс. диам. градин 0 мм] 1/1 600 м
[Sc]
+24.9 +16.5 60 +28 +28 жарко 1017.9 1009.1 +28.0
19 17.07 СВ 10 н/о н/о +23.7 +16.5 64 +27 +27 жарко 1018.2 1009.3
20 17.07 СВ 12 н/о н/о +22.3 +16.6 70 +27 +27 душно 1018.6 1009.7
21 17.07 СВ 9 10 км [макс. диам. градин 0 мм] 1/1 600 м
[Sc]
+21.8 +16.8 73 +26 +26 душно 1019.0 1010.1
22 17.07 СВ 8 н/о н/о +21.8 +16.5 72 +26 +26 душно 1019.5 1010.5
23 17.07 СВ 7 н/о н/о +21.5 +16.1 71 +25 +25 комфорт 1019.6 1010.6
00 18.07 СВ 8 10 км [макс. диам. градин 0 мм] 1/1 600 м
[Sc]
+21.5 +16.9 75 +25 +25 комфорт 1019.1 1010.1
01 18.07 СВ 8 н/о н/о +21.6 +15.9 70 +25 +25 комфорт 1018.5 1009.5
02 18.07 СВ 7 н/о н/о +21.1 +15.6 71 +24 +24 комфорт 1018.2 1009.2
03 18.07 СВ 5 10 км [макс. диам. градин 0 мм] 1/1 600 м
[Sc]
+20.9 +14.8 68 +24 +24 комфорт 1017.9 1008.9
04 18.07 СВ 7 н/о н/о +20.8 +14.9 69 +24 +24 комфорт 1017.8 1008.8
05 18.07 СВ 6 н/о н/о +20.7 +14.8 69 +23 +23 комфорт 1018.1 1009.1
06 18.07 СВ 5 10 км [макс. диам. градин 0 мм] 3/3 600 м
[Sc]
+20.6 +14.5 68 +23 +23 комфорт 1018.1 1009.1 +20.5
07 18.07 С 2 н/о н/о +21.0 +15.0 69 +25 +25 комфорт 1017.8 1008.8
08 18.07 В 7 н/о н/о +23.2 +14.7 59 +27 +27 душно 1018.9 1010.0
09 18.07 В 8 н/о н/о +24.0 +15.0 57 +27 +27 жарко 1019.1 1010.2
10 18.07 СВ 4 н/о н/о +25.9 +14.7 50 +28 +28 жарко 1018.8 1010.0
11 18.07 В 10 н/о н/о +25.7 +15.6 54 +29 +29 душно 1018.6 1009.8
12 18.07 В 12 н/о н/о +26.0 +15.1 51 +29 +29 душно 1018.5 1009.7
13 18.07 В 10 н/о н/о +26.3 +15.7 52 +29 +29 жарко 1018.0 1009.2
14 18.07 В 10 н/о н/о +26.5 +16.4 54 +30 +30 душно 1017.5 1008.7
15 18.07 В 10 н/о н/о +26.3 +16.3 54 +30 +30 душно 1016.9 1008.1
16 18.07 В 9 н/о н/о +26.3 +16.5 55 +30 +30 душно 1016.6 1007.8
17 18.07 В 10 н/о н/о +25.8 +15.8 54 +29 +29 душно 1016.3 1007.5
18 18.07 В 7 н/о н/о +25.2 +16.2 57 +29 +29 душно 1016.1 1007.3 +27.1
19 18.07 В 6 н/о н/о +24.9 +15.5 56 +28 +28 жарко 1016.2 1007.4
20 18.07 В 5 н/о н/о +23.2 +15.5 62 +27 +27 душно 1016.7 1007.8
21 18.07 В 7 30 км [макс. диам. градин 0 мм] 5/5 1000 м
[Sc]
+22.7 +15.5 64 +27 +27 душно 1017.0 1008.1
22 18.07 СВ 2 н/о н/о +22.8 +15.3 63 +27 +27 душно 1017.3 1008.4
23 18.07 В 3 н/о н/о +22.6 +15.2 63 +26 +26 жарко 1017.7 1008.8
00 19.07 ЮВ 2 30 км [макс. диам. градин 0 мм] 6/6 600 м
[Sc]
+22.5 +15.6 65 +26 +26 жарко 1017.3 1008.4
01 19.07 В 3 н/о н/о +22.5 +15.6 65 +26 +26 жарко 1017.2 1008.3
02 19.07 СВ 3 н/о н/о +22.2 +15.5 66 +26 +26 душно 1016.7 1007.8
03 19.07 В 2 30 км [макс. диам. градин 0 мм] 8/8 600 м
[Sc]
+22.1 +14.9 64 +26 +26 душно 1016.4 1007.5
04 19.07 ЮЗ 2 н/о н/о +21.7 +15.3 67 +25 +25 комфорт 1016.2 1007.3
05 19.07 СВ 2 н/о н/о +20.9 +14.8 68 +25 +25 комфорт 1016.5 1007.5
06 19.07 СВ 3 30 км [макс. диам. градин 0 мм] 5/5 600 м
[Sc]
+20.6 +14.5 68 +24 +24 комфорт 1016.7 1007.7 +20.6
07 19.07 СЗ 2 н/о н/о +20.7 +14.3 67 +24 +24 комфорт 1016.8 1007.8
08 19.07 ЮЗ 3 н/о н/о +23.0 +15.3 62 +27 +27 душно 1016.6 1007.7
09 19.07 Ю 3 30 км [макс. диам. градин 0 мм] 1/1 1000 м
[Sc]
+24.3 +15.5 58 +27 +33 жарко 1017.2 1008.3
10 19.07 Ю 5 н/о н/о +24.9 +15.4 56 +28 +28 жарко 1017.2 1008.4
11 19.07 З 6 н/о н/о +26.0 +15.9 54 +29 +29 душно 1017.0 1008.2
12 19.07 Ю 4 30 км [макс. диам. градин 0 мм] 1/1 1000 м
[Cu Sc]
+26.3 +15.7 52 +29 +41 жарко 1017.6 1008.8
13 19.07 В 5 н/о н/о +25.4 +17.3 61 +29 +29 душно 1017.8 1009.0
14 19.07 В 9 н/о н/о +26.8 +16.7 54 +30 +30 душно 1017.0 1008.2
15 19.07 В 10 30 км [макс. диам. градин 0 мм] 4/4 1000 м
[Cu Sc]
+27.3 +16.7 52 +31 +31 душно 1016.2 1007.4
16 19.07 В 9 н/о н/о +27.1 +16.7 53 +31 +31 душно 1016.1 1007.3
17 19.07 В 9 н/о н/о +26.4 +17.2 57 +30 +30 душно 1016.2 1007.4
18 19.07 В 8 н/о [макс. диам. градин 0 мм] 4/4 <50 м
[]
+25.9 +17.0 58 +30 +30 душно 1015.9 1007.1 +28.7
19 19.07 В 10 н/о н/о +23.9 +16.9 65 +28 +28 душно 1016.2 1007.3
20 19.07 СВ 8 н/о н/о +23.5 +16.4 64 +27 +27 душно 1016.4 1007.5
21 19.07 В 6 н/о н/о +22.9 +16.7 68 +28 +28 душно 1016.8 1007.9
22 19.07 СВ 6 н/о н/о +22.7 +16.3 67 +27 +27 душно 1017.2 1008.3
23 19.07 СВ 6 н/о н/о +22.5 +16.3 68 +27 +27 душно 1017.4 1008.5
00 20.07 СВ 7 н/о н/о +22.6 +16.2 67 +27 +27 душно 1017.4 1008.5
01 20.07 СВ 7 н/о н/о +22.3 +16.1 68 +26 +26 жарко 1017.0 1008.1
02 20.07 В 5 н/о н/о +21.9 +16.0 69 +26 +26 душно 1016.5 1007.6
03 20.07 СВ 5 н/о н/о +21.7 +17.2 76 +26 +26 душно 1016.5 1007.6
05 20.07 СВ 2 н/о н/о +21.3 +16.0 72 +25 +25 комфорт 1016.6 1007.7
06 20.07 С 3 н/о н/о +21.5 +15.8 70 +25 +25 комфорт 1016.9 1008.0 +21.2
07 20.07 ЮВ 3 н/о н/о +21.8 +17.3 76 +26 +26 душно 1017.1 1008.2
08 20.07 В 3 н/о н/о +22.6 +17.2 72 +27 +27 душно 1017.9 1009.0
09 20.07 В 6 30 км [макс. диам. градин 0 мм] 4/4 600 м
[Sc]
+24.3 +17.8 67 +28 +30 душно 1018.1 1009.2
10 20.07 В 8 н/о н/о +25.9 +17.2 59 +30 +30 душно 1018.5 1009.7
11 20.07 В 11 н/о н/о +26.1 +17.2 58 +30 +30 душно 1019.0 1010.2
12 20.07 В 11 30 км [макс. диам. градин 0 мм] 4/4 600 м
[Sc]
+26.5 +17.7 58 +31 +31 душно 1019.0 1010.2
13 20.07 В 10 н/о н/о +27.4 +16.7 52 +31 +31 душно 1018.9 1010.1
14 20.07 В 9 н/о н/о +27.4 +16.8 52 +31 +31 душно 1018.5 1009.7
15 20.07 В 10 30 км [макс. диам. градин 0 мм] 3/3 600 м
[Sc]
+27.6 +17.5 54 +32 +32 очень
душно
1018.1 1009.3
16 20.07 В 10 н/о н/о +27.1 +18.1 58 +32 +32 очень
душно
1017.7 1008.9
17 20.07 СВ 9 н/о н/о +27.0 +17.1 55 +31 +31 душно 1017.4 1008.6
18 20.07 В 9 30 км [макс. диам. градин 0 мм] 1/1 600 м
[Sc]
+25.9 +17.5 60 +30 +30 душно 1017.1 1008.3 +28.3
19 20.07 В 8 н/о н/о +25.0 +17.5 63 +29 +29 душно 1017.6 1008.8
20 20.07 В 9 н/о н/о +23.0 +18.3 75 +29 +29 очень
душно
1018.4 1009.5
21 20.07 СВ 10 25 км [макс. диам. градин 0 мм] 1/1 600 м
[Cu hum]
+22.6 +18.4 77 +28 +28 душно 1019.0 1010.1
22 20.07 В 6 н/о н/о +22.3 +17.9 76 +27 +27 душно 1019.8 1010.9
23 20.07 СВ 7 н/о н/о +22.6 +17.1 71 +27 +27 душно 1020.0 1011.1
00 21.07 СВ 8 20 км [макс. диам. градин 0 мм] 1/1 600 м
[Sc]
+22.4 +17.4 73 +27 +27 душно 1019.8 1010.9
01 21.07 СВ 6 н/о н/о +21.9 +18.3 80 +27 +27 душно 1019.3 1010.4
02 21.07 СВ 7 н/о н/о +21.7 +17.3 76 +26 +26 душно 1018.8 1009.9
03 21.07 СВ 7 20 км [макс. диам. градин 0 мм] 8/8 600 м
[Sc]
+21.8 +17.6 77 +26 +26 душно 1018.8 1009.9
04 21.07 СВ 7 н/о н/о +22.0 +17.6 76 +27 +27 душно 1018.5 1009.6
05 21.07 СВ 7 н/о н/о +21.8 +17.4 76 +26 +26 душно 1018.5 1009.6
06 21.07 СВ 6 20 км [макс. диам. градин 0 мм] 8/8 600 м
[Sc]
+21.7 +17.1 75 +26 +26 душно 1018.5 1009.6 +21.5
07 21.07 С 3 н/о н/о +21.4 +16.1 72 +25 +25 комфорт 1019.3 1010.3
08 21.07 СВ 8 н/о н/о +22.6 +17.5 73 +28 +28 душно 1019.7 1010.8
09 21.07 СВ 9 30 км [макс. диам. градин 0 мм] 3/3 600 м
[Sc]
+24.6 +16.8 62 +28 +29 душно 1019.6 1010.7
10 21.07 СВ 7 н/о н/о +25.9 +16.9 58 +30 +30 душно 1019.5 1010.7
11 21.07 В 9 н/о н/о +26.2 +17.6 59 +30 +30 душно 1019.7 1010.9
12 21.07 В 10 30 км [макс. диам. градин 0 мм] 1/1 600 м
[Sc]
+26.6 +17.7 58 +31 +31 душно 1019.4 1010.6
13 21.07 В 11 н/о н/о +26.8 +17.3 56 +31 +31 душно 1019.3 1010.5
14 21.07 В 10 н/о н/о +27.1 +18.1 58 +32 +32 очень
душно
1019.0 1010.2
15 21.07 В 11 30 км [макс. диам. градин 0 мм] 1/1 600 м
[Sc]
+26.6 +17.8 58 +31 +31 душно 1018.8 1010.0
16 21.07 В 10 н/о н/о +26.9 +17.4 56 +31 +31 душно 1018.7 1009.9
17 21.07 В 10 н/о н/о +26.4 +18.3 61 +31 +31 душно 1018.4 1009.6
18 21.07 СВ 10 30 км [макс. диам. градин 0 мм] 1/1 600 м
[Sc]
+26.4 +17.2 57 +30 +31 душно 1018.4 1009.6 +27.6
19 21.07 СВ 9 н/о н/о +24.7 +17.4 64 +29 +29 душно 1018.8 1009.9
20 21.07 СВ 8 н/о н/о +23.1 +17.6 71 +28 +28 душно 1019.2 1010.3
21 21.07 СВ 6 25 км [макс. диам. градин 0 мм] н/о +22.4 +17.7 75 +27 +27 душно 1020.1 1011.2
22 21.07 СВ 7 н/о н/о +22.2 +17.8 76 +27 +27 душно 1020.4 1011.5
23 21.07 СВ 7 н/о н/о +21.8 +17.8 78 +26 +26 душно 1020.6 1011.6
00 22.07 СВ 7 25 км [макс. диам. градин 0 мм] н/о +21.8 +18.0 79 +26 +26 душно 1020.5 1011.5
01 22.07 СВ 5 н/о н/о +21.7 +17.5 77 +26 +26 душно 1020.1 1011.1
02 22.07 СВ 6 н/о н/о +21.5 +17.7 79 +26 +26 душно 1019.4 1010.4
03 22.07 СВ 6 30 км [макс. диам. градин 0 мм] н/о +21.3 +17.5 79 +25 +25 комфорт 1019.0 1010.0
04 22.07 СВ 4 н/о н/о +21.2 +17.2 78 +25 +25 комфорт 1018.9 1009.9
05 22.07 СВ 4 н/о н/о +20.5 +16.3 77 +24 +24 комфорт 1018.7 1009.7
06 22.07 С 3 30 км [макс. диам. градин 0 мм] 3/3 600 м
[Sc]
+20.1 +15.9 77 +23 +23 комфорт 1019.0 1010.0 +20.1
07 22.07 СВ 4 н/о н/о +20.8 +16.6 77 +24 +24 комфорт 1018.9 1009.9
08 22.07 СВ 5 н/о н/о +22.9 +16.9 69 +28 +28 душно 1019.0 1010.1
09 22.07 В 8 35 км [макс. диам. градин 0 мм] 1/1 600 м
[Sc]
+24.3 +16.6 62 +28 +29 душно 1018.8 1009.9
10 22.07 В 8 н/о н/о +25.6 +16.6 58 +29 +29 душно 1018.8 1010.0
11 22.07 В 11 н/о н/о +25.7 +16.8 58 +29 +29 душно 1018.8 1010.0
12 22.07 В 10 35 км [макс. диам. градин 0 мм] 1/1 600 м
[Cu hum]
+26.8 +16.7 54 +30 +31 душно 1018.6 1009.8
13 22.07 В 11 н/о н/о +26.7 +17.2 56 +31 +31 душно 1018.7 1009.9
14 22.07 В 12 н/о н/о +27.4 +17.0 53 +31 +31 душно 1018.0 1009.2
15 22.07 В 10 30 км [макс. диам. градин 0 мм] 1/1 600 м
[Sc]
+27.0 +17.6 56 +31 +32 душно 1017.3 1008.5
16 22.07 В 10 н/о н/о +26.6 +17.7 58 +31 +31 душно 1016.7 1007.9
17 22.07 В 11 н/о н/о +25.5 +17.5 61 +30 +30 душно 1016.8 1008.0
18 22.07 В 10 25 км [макс. диам. градин 0 мм] ясно +24.8 +16.9 61 +28 +29 жарко 1016.7 1007.9 +27.6
19 22.07 В 8 н/о н/о +24.0 +17.3 66 +28 +28 душно 1017.4 1008.5
20 22.07 СВ 7 н/о н/о +22.4 +17.1 72 +27 +27 душно 1018.0 1009.1
21 22.07 СВ 5 5000 м [макс. диам. градин 0 мм] 1/1 600 м
[Sc]
+21.9 +16.4 71 +26 +26 душно 1018.3 1009.4
22 22.07 СВ 4 н/о н/о +21.5 +16.7 74 +25 +25 комфорт 1018.5 1009.5

 

Местоположение метеостанции Аэропорт Рейна-София (Канарские Острова): широта 28.05 долгота -16.56 высота над уровнем моря 77 м.

В архиве по умолчанию представлена погода в Аэропорту Рейна-София за последнюю неделю. Архивные данные за месяц целиком и за предыдущие месяцы, начиная с января 2011 года, Вы можете получить, выбрав интересующий диапазон дат из раскрывающегося списка и нажав кнопку "Ввод!".


*Определитесь, кто Вы:
робот инопланетянин человек

Внимание! Время в таблицах - всемирное. Для получения местного времени необходимо прибавить поправку, которая равна 0 ч.

Смотрите также архив погоды в соседних городах и на ближайших метеорологических станциях:

Погода в Обсерватории Izana (Канарские Острова) (28 км)
Погода в Тенерифе-Гуимаре (Канарские Острова) (35 км)
Погода в Пуэрто-де-ла-Крус (Канарские Острова) (41 км)
Погода на Тенерифе (Канарские Острова) (53 км)
Погода в Санта-Круз-де-Тенерифе (Канарские Острова) (54 км)
Погода в Сан-Себастьян-де-ла-Гомера (Канарские Острова) (54 км)
Погода на Гомере (Канарские Острова) (64 км)
Погода в Джиждель порту (Алжир) (64 км)
Погода в Пуэрто-де-Могане (Канарские Острова) (83 км)
Погода в Лас-Пальмас-де-Гран-Канарии 2 (Канарские Острова) (111 км)

Пояснения к столбцам:

Ветер - указаны скорость ветра в м/с - средняя за 10 мин, порывы в срок и между сроками (в фигурных скобках) и направление, откуда дует ветер: С - северный, СВ - северо-восточный, В - восточный, ЮВ - юго-восточный, Ю - южный, ЮЗ - юго-западный, З - западный, СЗ - северо-западный.
Видимость - горизонтальная дальность видимости в метрах или километрах. При видимости от 1 до 10 км при отсутствии осадков обычно наблюдается дымка, при ухудшении видимости до 1 км и менее - туман. В сухую погоду видимость может ухудшаться дымом, пылью или мглою.
Явления - указаны атмосферные явления, наблюдавшиеся в срок или в последний час перед сроком; фигурными скобками обозначены явления, наблюдавшиеся между сроками (за 1-3 часа до срока); квадратными скобками обозначены град или гололедные отложения с указанием их диаметра в мм.
Облачность - указаны через наклонную черту общая и нижняя облачность в баллах и высота нижней границы облаков в метрах; квадратными скобками обозначены формы облаков: Ci - перистые, Cs - перисто-слоистые, Cc - перисто-кучевые, Ac - высококучевые, As - высокослоистые, Sc - слоисто-кучевые, Ns - слоисто-дождевые, Cu - кучевые, Cb - кучево-дождевые. Подробнее классификацию облаков см. в Атласе облаков (PDF).
T - Температура воздуха - температура, измеренная на высоте 2 м над землей.
Td - Температура точки росы - температура, при понижении до которой содержащийся в воздухе водяной пар достигнет насыщения.
f - Относительная влажность воздуха - влажноcть воздуха, измеренная на высоте 2 м над землей.
Te - Эффективная температура - температура, которую ощущает одетый по сезону человек в тени. Характеристика душности погоды. При расчете учитывается влияние влажности воздуха и скорости ветра на теплоощущения человека.
Tes - Эффективная температура на солнце - температура, которую ощущает человек, с поправкой на солнечный нагрев. Характеристика знойности погоды. Зависит от высоты солнца над горизонтом, облачности и скорости ветра. Ночью, в пасмурную погоду, а также при ветре 12 м/с и более поправка равна нулю.
P - Атмосферное давление - приведенное к уровню моря атмосферное давление.
Po - Атмосферное давление - измеренное на уровне метеостанции атмосферное давление.
Tmin - Минимальная температура - минимум температуры воздуха на высоте 2 м над землей.
Tmax - Максимальная температура - максимум температуры воздуха на высоте 2 м над землей.
R - Количество осадков - Количество выпавших осадков за период времени, мм. При наведении курсора мыши на число - период времени, за который выпало указанное количество осадков.
R24 - Количество осадков - Количество выпавших осадков за 24 часа, мм.
S - Снежный покров - Высота снежного покрова, см. При наведении курсора мыши на число - состояние снежного покрова и степень покрытия местности в баллах.